GALAXY 32 (G-32)

Last updated on Thu Oct 30 2025 00:02:52 GMT+0000 (Coordinated Universal Time)

1 54244U 22153B 25302.45200999 -.00000165 00000+0 00000+0 0 9993 2 54244 0.0137 289.0383 0001228 0.9745 179.7751 1.00271300 10836
UTC large
Height (km)
Speed (km/s)
/
Latitude / Longitude
Inclination (degrees)
Orbital Period (minutes)
Azimuth
Elevation
Range (km)
Doppler Factor

Next 0 passes for location: London (51.5072 / 0.1276)

Sorry there are no passes over London.